Location: Unspecified
(0.0000°N, 0.0000°E)
Time: 19:39:14
(UTC+00:00)

Vanguard 1 - Visible Passes

Search period start: 31 July 2021 00:00
Search period end: 10 August 2021 00:00
Orbit: 651 x 3831 km, 34.2° (Epoch: 31 July)

Date Brightness Start Highest point End Pass type
(mag) Time Alt. Az. Time Alt. Az. Time Alt. Az.
31 Jul 12.8 03:26:33 15° SSE 03:26:33 15° SSE 03:30:54 10° SE visible
31 Jul 10.8 05:42:33 10° SW 05:50:14 46° SSE 05:55:04 10° ENE visible
31 Jul 13.2 19:57:54 10° WNW 20:17:15 53° SW 20:31:03 29° SSE visible
31 Jul 13.8 22:31:11 10° WSW 22:43:47 22° SW 22:43:47 22° SW visible
01 Aug 12.4 03:46:25 18° S 03:48:32 20° SSE 03:53:54 10° ESE visible
01 Aug 12.8 17:55:20 10° NW 18:11:14 89° NE 18:35:10 10° SE visible
01 Aug 13.4 20:20:20 10° W 20:39:28 43° SSW 20:51:01 29° SSE visible
01 Aug 14.0 22:56:28 10° WSW 23:03:46 17° SW 23:03:46 17° SW visible
02 Aug 12.0 04:06:19 21° SSW 04:10:27 27° SSE 04:16:12 10° ESE visible
02 Aug 12.9 18:16:31 10° WNW 18:32:49 76° SW 18:56:45 10° SE visible
02 Aug 13.5 20:43:21 10° W 21:01:59 35° SSW 21:10:59 28° S visible
02 Aug 14.2 23:21:54 10° SW 23:23:43 12° SW 23:23:43 12° SW visible
03 Aug 11.5 04:26:14 21° SSW 04:32:08 38° SSE 04:38:00 10° E visible
03 Aug 13.0 18:38:00 10° WNW 18:54:39 62° SW 19:18:07 10° SE visible
03 Aug 13.6 21:07:00 10° WSW 21:24:50 29° SSW 21:30:55 26° S visible
04 Aug 12.9 02:33:27 16° SE 02:33:27 16° SE 02:36:05 10° ESE visible
04 Aug 10.9 04:46:10 19° SW 04:53:33 57° SSE 04:59:22 10° ENE visible
04 Aug 13.2 18:59:52 10° WNW 19:16:42 51° SSW 19:38:05 12° SE visible
04 Aug 13.7 21:31:18 10° WSW 21:48:04 24° SSW 21:50:49 24° S visible
05 Aug 12.5 02:53:24 25° SE 02:53:24 25° SE 02:58:38 10° ESE visible
05 Aug 10.4 05:06:08 15° SW 05:14:42 87° SE 05:20:22 10° NE visible
05 Aug 13.4 19:22:10 10° W 19:39:01 41° SSW 19:57:57 15° SSE visible
05 Aug 13.8 21:56:04 10° SW 22:10:41 21° SSW 22:10:41 21° SSW visible
06 Aug 12.1 03:13:22 35° SSE 03:13:22 35° SSE 03:20:42 10° E visible
06 Aug 10.5 05:26:08 10° WSW 05:35:36 60° NW 05:41:04 10° NE visible
06 Aug 13.6 19:45:01 10° W 20:01:40 34° SSW 20:17:47 16° SSE visible
06 Aug 13.9 22:20:55 10° SW 22:30:30 18° SSW 22:30:30 18° SSW visible
07 Aug 11.6 03:33:21 45° S 03:35:01 48° SSE 03:42:19 10° ENE visible
07 Aug 13.7 20:08:25 10° WSW 20:24:41 28° SSW 20:37:35 18° SSE visible
07 Aug 14.1 22:45:16 10° SW 22:50:17 15° SSW 22:50:17 15° SSW visible
08 Aug 11.1 03:53:19 48° SSW 03:56:29 67° SSE 04:03:35 10° ENE visible
08 Aug 13.2 18:02:32 10° W 18:16:44 47° SSW 18:38:21 10° SE visible
08 Aug 13.8 20:32:22 10° WSW 20:48:05 24° SSW 20:57:20 19° SSE visible
08 Aug 14.2 23:08:45 10° SW 23:10:02 11° SSW 23:10:02 11° SSW visible
09 Aug 13.0 02:00:34 18° ESE 02:00:34 18° ESE 02:02:54 10° E visible
09 Aug 10.8 04:13:18 42° SW 04:17:39 87° NW 04:24:32 10° NE visible
09 Aug 13.4 18:24:45 10° W 18:39:06 38° SSW 18:59:40 10° SE visible
09 Aug 13.8 20:56:41 10° SW 21:11:50 21° S 21:17:02 20° S visible
